Vorticity
4 4 4 5 5 6 6 7 8 8 8 8 8 8 8 8 7 7 7 7 7 6 6 7 7 7 7 7 7 7 7 7 7 7 7 7 7 6 6 6 6 6 6 6 6 6 5 5 6 7 7 7 7 7 7 7 7 7 7 7 7 7 8 8 8 8 9 9 9 9 8 8 7 7 7 7 8 8 8 7 7 6 6 6 7 7 6 6 9 11 7 7 7 7 6 6 6 7 8 8 9 9 9
3 2 1 2 2 3 4 5 6 7 7 8 8 8 8 8 8 8 8 7 7 7 7 7 7 7 7 7 7 7 7 7 7 7 7 7 7 7 7 6 6 7 7 7 7 7 6 6 7 7 7 7 7 7 8 8 8 8 8 8 8 8 8 8 8 9 9 9 9 9 8 8 7 7 7 7 8 8 8 7 7 6 6 6 6 6 5 6 7 7 5 6 6 6 6 6 6 7 7 8 9 10 11
3 3 3 3 3 3 3 4 5 5 6 6 7 8 8 8 9 9 9 8 8 8 7 7 7 7 7 7 7 8 8 8 8 8 7 7 7 7 7 7 7 7 7 7 7 7 7 7 8 8 7 7 7 8 8 8 8 8 8 8 8 8 8 8 8 8 8 8 8 8 8 8 7 7 7 7 7 7 7 7 6 6 6 6 6 6 6 6 7 7 7 7 7 7 6 6 6 7 7 8 9 10 10
7 7 7 7 6 5 4 4 4 4 4 5 6 6 7 8 8 8 9 9 9 8 8 8 7 7 7 7 7 8 8 8 8 8 8 8 8 8 8 8 7 7 7 8 8 8 8 9 9 9 8 8 8 8 8 8 8 8 8 8 8 8 8 7 7 7 7 7 7 7 7 7 7 7 7 7 7 7 7 7 7 6 6 6 6 6 6 7 8 8 8 8 8 8 7 6 6 6 7 7 8 9 10
8 9 9 9 8 7 6 5 4 3 3 3 4 5 6 7 7 8 8 8 8 8 8 8 8 8 8 7 8 8 8 8 8 8 8 8 8 8 8 8 8 8 8 8 9 9 9 9 9 9 9 9 9 8 8 8 8 8 7 7 7 7 7 7 7 7 6 6 6 6 6 6 6 6 6 7 7 7 6 7 7 7 7 7 6 6 6 7 8 9 9 9 9 8 7 6 6 6 7 7 8 9 9
8 8 8 8 8 8 7 6 5 4 3 3 3 4 4 5 6 7 7 8 8 8 8 8 8 8 8 8 8 8 8 8 8 8 8 8 8 8 8 8 8 8 8 8 9 9 9 9 8 8 8 8 8 8 8 7 7 7 7 7 7 7 7 7 6 6 6 6 6 6 6 6 6 6 6 7 7 6 6 7 7 7 7 7 6 6 7 7 8 9 10 9 8 8 7 6 6 7 7 7 8 9 9
8 8 8 8 8 8 8 8 7 6 5 4 4 3 3 4 4 5 6 6 7 7 8 8 8 8 8 8 8 8 8 8 8 7 7 7 8 8 8 8 8 8 8 8 8 8 8 8 7 7 7 8 8 7 7 7 7 7 7 7 7 7 6 7 6 6 6 6 6 6 6 6 6 6 7 7 7 7 7 7 7 7 7 7 7 7 7 8 8 9 9 9 8 8 7 7 8 7 7 7 8 8 8
8 8 8 7 7 7 7 8 8 8 7 6 5 4 4 4 4 4 4 5 5 6 6 7 7 7 7 7 7 7 7 7 7 7 7 6 6 6 6 6 6 6 6 6 6 7 7 6 6 6 7 7 7 7 7 7 7 7 7 6 6 6 6 6 6 6 6 6 6 6 6 6 6 6 7 7 7 7 7 7 7 7 7 7 7 7 7 8 8 9 9 9 9 8 8 8 8 8 7 7 8 8 8
7 7 7 7 6 6 7 7 7 7 7 7 6 6 5 4 4 4 3 4 4 4 5 5 5 5 6 6 6 5 5 5 5 5 5 5 4 4 4 4 5 5 4 4 5 5 5 5 4 5 5 5 5 5 5 5 6 6 6 6 6 6 6 6 6 6 6 6 6 6 6 6 6 7 7 7 7 7 7 7 7 7 7 7 7 7 7 8 8 8 9 9 9 9 8 8 8 8 8 8 7 7 7
6 6 6 6 6 6 6 6 6 6 6 6 6 6 6 5 5 5 4 4 4 4 4 4 4 4 3 3 3 3 3 3 2 2 2 2 2 2 2 2 2 2 3 3 3 3 3 3 3 3 3 3 3 4 4 4 4 5 5 5 5 5 5 5 5 5 5 5 6 6 6 6 6 6 6 6 7 7 7 7 7 7 7 7 7 7 7 8 8 8 8 8 8 8 8 8 8 8 8 8 7 7 7
5 5 5 5 5 5 5 5 6 6 6 5 5 5 5 5 5 5 5 5 5 4 4 4 3 3 3 2 2 2 2 2 1 1 1 1 1 1 1 1 1 2 2 2 2 2 2 2 2 2 3 3 3 3 3 3 4 4 4 4 5 5 5 5 5 5 5 5 5 5 5 6 6 6 6 6 7 7 7 7 7 7 7 7 7 8 8 8 8 8 8 8 8 8 8 8 8 8 7 7 7 7 6
4 4 4 4 4 4 4 5 5 5 5 5 5 5 4 4 5 5 5 5 5 4 4 4 4 4 4 3 3 3 3 3 3 3 3 3 3 2 2 2 2 2 2 3 3 3 3 3 3 3 3 3 3 3 3 3 4 4 4 4 4 5 5 5 5 5 5 5 5 5 5 5 6 6 6 6 6 7 7 7 7 7 7 7 7 7 7 7 7 7 8 7 7 8 8 8 7 7 7 7 6 6 6
3 3 4 4 4 4 4 4 4 4 5 5 5 5 5 4 4 4 3 4 3 3 3 3 3 4 4 4 4 4 4 4 4 4 4 4 4 4 4 4 4 4 3 3 4 4 4 4 4 4 4 4 4 4 4 4 4 4 4 4 5 5 5 5 5 5 5 5 5 5 5 5 6 6 6 6 6 6 6 7 7 7 7 7 7 7 7 7 7 7 7 7 7 7 7 7 7 7 7 6 6 6 6
3 3 3 4 4 4 4 4 4 3 3 4 4 4 5 4 4 3 3 3 3 2 2 2 2 2 3 3 3 3 3 3 3 3 4 4 4 4 5 5 5 4 4 4 4 4 4 4 4 4 4 4 4 4 4 5 5 5 5 5 5 6 6 6 6 6 6 5 5 5 5 5 6 6 6 6 6 6 6 7 7 7 7 7 7 7 7 7 7 7 7 7 7 7 7 7 7 7 7 6 6 6 6
3 4 3 3 4 4 4 4 4 3 3 3 3 3 4 4 4 4 3 3 3 2 2 1 1 1 2 2 3 3 3 3 3 2 2 2 3 3 4 5 5 5 4 4 4 4 4 4 4 3 3 3 3 4 4 4 5 5 5 5 5 6 7 7 7 7 7 6 6 5 5 5 6 6 6 6 6 6 6 7 7 7 7 7 7 7 7 7 7 7 7 7 7 7 7 7 7 7 7 7 7 7 6
2 4 2 2 3 4 3 4 4 4 3 3 3 3 3 4 4 5 4 4 4 3 3 3 3 2 2 2 2 3 3 3 2 2 2 2 2 2 3 4 5 5 5 5 4 4 4 3 2 2 2 3 3 3 4 4 5 5 5 6 6 6 7 7 8 8 8 8 7 6 6 6 6 6 6 6 6 7 7 7 7 7 7 7 7 7 7 7 7 7 7 7 7 7 7 7 7 7 7 7 7 7 6
1 3 3 3 3 3 2 3 3 3 4 4 3 3 3 3 4 4 4 4 4 4 4 3 3 3 2 3 3 3 3 3 3 2 2 1 2 2 3 4 5 6 6 5 5 5 4 3 2 1 2 2 3 3 4 4 5 5 6 6 6 6 6 7 8 8 9 9 8 7 7 6 6 6 6 6 7 7 7 7 7 7 7 7 7 7 7 7 7 7 7 7 7 7 7 7 7 7 7 7 7 6 6
1 4 4 2 2 2 2 2 1 2 4 4 4 3 3 3 3 3 3 3 3 4 4 4 3 3 2 3 3 3 3 3 3 2 2 1 1 1 2 4 5 6 6 5 5 5 4 3 2 2 2 2 3 3 4 4 5 5 5 6 6 5 5 6 7 8 9 9 9 9 8 7 7 7 6 7 7 7 7 7 7 7 7 7 7 7 7 7 7 7 7 7 7 7 7 7 7 7 7 7 6 6 6
2 4 3 0 1 2 2 1 1 2 3 4 4 3 3 3 2 2 2 2 2 2 2 3 3 2 2 2 3 4 4 4 4 3 2 1 0 0 1 3 4 6 6 6 5 4 3 2 2 2 2 2 2 3 3 4 4 5 5 5 5 5 5 5 6 7 8 9 9 9 9 8 8 7 7 7 7 7 7 7 7 7 7 7 7 7 7 7 7 7 7 7 7 7 7 7 7 7 7 7 7 6 6
1 3 4 0 1 2 1 1 1 1 2 4 4 4 4 3 3 2 2 2 2 2 1 2 3 3 2 2 2 3 3 4 4 4 3 1 0 -0 0 1 3 5 6 6 6 5 3 2 2 2 2 2 2 2 3 3 3 3 3 4 4 4 4 4 5 6 7 8 9 10 10 9 8 8 7 7 7 7 7 7 7 7 7 8 8 7 7 7 7 7 7 7 7 7 7 7 7 7 7 7 7 6 6
-0 2 5 3 2 2 1 1 1 1 2 3 4 4 4 3 3 2 2 2 2 2 2 1 2 3 2 2 2 2 2 3 3 3 3 3 2 0 -0 0 1 3 4 5 6 6 5 3 2 2 2 2 2 2 2 2 2 2 2 2 2 3 3 4 5 5 7 8 9 10 10 10 9 8 8 7 7 7 7 7 7 7 8 8 8 7 7 7 7 7 7 7 7 7 7 7 7 6 6 6 6 6 6
-1 2 6 5 3 2 2 2 1 1 2 2 3 4 5 4 3 3 3 2 2 2 3 2 2 3 2 3 2 1 1 2 3 3 2 3 2 2 1 1 1 1 2 4 5 6 7 5 4 3 2 2 2 1 1 1 1 0 0 0 1 1 2 3 4 5 6 8 9 10 10 10 10 9 8 8 7 7 7 7 7 7 7 8 7 7 7 7 7 7 6 6 6 6 6 6 6 6 6 6 6 6 6
-0 2 5 6 5 4 2 2 1 1 2 0 2 5 4 4 4 3 3 3 2 2 3 3 3 3 3 3 2 1 1 2 3 3 3 2 2 2 3 2 1 1 1 2 3 5 7 7 6 5 3 3 2 2 1 1 0 -0 -0 -0 0 1 2 3 4 5 7 8 9 10 11 11 10 10 9 8 8 7 7 7 7 7 7 7 7 7 7 6 6 6 6 6 5 5 5 5 5 5 5 5 5 5 5
1 1 2 5 6 4 2 2 2 3 3 2 3 4 3 4 4 4 3 3 3 2 3 3 3 3 3 2 2 2 2 2 2 3 4 3 2 2 3 2 2 2 2 1 2 3 5 7 7 6 5 4 3 3 2 1 1 0 -0 0 0 1 2 3 4 5 6 8 9 10 11 11 11 10 9 9 8 8 7 7 7 7 7 7 7 6 6 6 6 5 5 5 5 5 5 5 5 5 5 5 5 5 5
3 2 2 4 5 5 2 2 2 3 3 3 3 3 2 3 3 3 3 3 3 2 2 2 2 2 3 3 2 2 1 1 1 1 2 2 2 2 3 3 3 3 1 0 0 1 3 6 7 7 6 5 4 4 3 2 2 1 1 1 1 2 2 3 4 5 6 7 9 10 11 11 11 11 10 9 8 8 8 7 7 7 7 7 6 6 6 5 5 5 5 5 5 5 5 5 5 5 5 5 5 5 5
2 1 2 2 3 4 3 3 2 2 2 3 3 3 2 3 3 3 3 2 2 2 2 2 2 2 2 2 2 1 1 1 0 -0 0 1 1 1 2 3 3 3 1 -0 -1 -1 1 4 7 8 7 5 5 4 4 3 3 2 2 2 2 2 3 3 3 4 5 7 8 10 11 12 12 11 11 10 9 8 8 7 7 7 7 6 6 6 6 5 5 5 5 5 5 5 5 5 5 5 5 5 5 5 6
0 -0 2 2 1 2 4 4 3 3 2 2 3 4 2 4 3 2 2 1 1 1 1 2 2 2 2 3 3 3 3 2 1 0 0 1 1 1 1 2 3 3 3 1 -1 -2 -1 2 5 7 7 5 5 4 4 4 3 3 2 2 3 3 3 3 3 3 4 6 8 9 11 12 12 12 11 10 9 8 8 7 7 7 6 6 6 6 5 5 5 5 5 5 5 5 5 5 5 5 5 5 5 5 6
0 1 3 1 1 1 5 4 3 3 2 1 3 4 3 3 3 3 2 1 1 1 1 1 2 2 2 3 3 4 4 4 3 2 1 1 1 1 1 1 2 3 4 3 2 1 -0 1 4 6 7 6 5 4 4 4 3 3 2 3 3 3 3 2 2 3 3 5 7 8 10 11 12 12 12 11 10 9 8 8 7 7 6 6 6 6 5 5 5 5 5 5 5 5 5 5 5 5 5 5 5 5 5
1 2 3 3 3 3 3 1 2 3 2 2 2 3 3 3 3 3 3 2 2 1 1 1 1 2 2 2 2 3 3 4 4 4 3 2 2 1 1 2 2 3 3 4 3 2 1 1 2 4 6 6 5 4 4 3 3 2 2 2 3 3 3 2 2 2 2 4 6 7 9 11 12 12 12 11 10 9 8 8 7 7 6 6 6 6 5 5 5 5 5 5 5 5 5 5 5 5 5 5 5 5 5
1 2 3 4 3 2 2 3 3 3 1 1 1 1 3 2 2 2 3 3 3 3 2 2 1 2 2 2 2 2 2 3 3 4 4 4 4 3 3 3 3 3 3 3 4 4 3 2 1 2 4 4 4 4 3 3 2 2 2 2 3 3 3 2 2 2 2 3 5 6 8 10 11 12 13 12 11 10 9 8 7 7 7 6 6 5 5 5 5 5 5 5 5 5 5 5 5 5 5 5 5 5 5
0 1 3 4 4 5 5 4 2 0 1 1 0 -1 -5 -1 1 1 1 2 4 4 4 3 2 2 2 2 2 2 2 2 3 3 3 4 4 5 5 5 5 4 4 3 3 4 5 4 3 2 2 2 3 3 3 3 2 2 2 2 3 3 2 2 2 1 1 2 3 5 7 9 10 12 13 12 12 11 9 8 8 7 7 6 6 5 5 5 5 5 5 5 5 5 5 5 5 5 5 5 5 5 5
1 1 2 3 4 5 4 3 2 2 3 3 2 0 -3 -1 0 1 1 3 4 5 5 4 3 2 2 3 3 3 3 3 3 3 3 3 4 4 5 6 6 5 4 4 4 4 5 6 5 4 1 1 1 2 2 2 2 2 2 2 2 2 2 2 2 1 1 1 2 4 6 7 9 11 12 12 12 11 10 9 8 8 7 6 6 5 5 5 5 5 5 5 5 5 5 5 5 5 5 5 5 5 5
2 2 2 2 3 4 4 4 3 3 2 3 3 2 1 2 4 5 4 5 5 5 5 4 3 3 2 3 3 3 3 3 3 3 3 3 2 3 4 5 6 6 5 5 4 4 4 5 6 5 4 2 1 1 1 1 1 1 1 2 2 2 2 2 2 1 1 1 2 3 5 6 8 10 11 12 12 12 11 10 9 8 7 7 6 6 5 5 5 5 5 5 5 5 5 5 5 5 5 5 5 5 5
4 3 3 3 3 3 3 4 4 3 1 2 2 2 2 1 2 3 4 3 3 4 4 4 4 3 3 3 3 3 3 3 4 4 3 3 2 2 2 3 4 5 5 5 5 4 4 5 6 6 6 4 3 2 1 1 1 1 1 2 2 2 2 2 2 1 1 1 1 2 3 5 7 8 10 11 12 12 12 10 9 9 8 7 7 6 6 5 5 5 5 5 5 5 5 5 5 5 5 5 5 5 5
5 4 4 3 3 3 4 4 4 4 2 2 2 2 2 2 1 1 2 2 2 3 4 4 4 4 3 3 3 3 3 3 3 3 4 3 3 2 1 2 3 4 5 5 5 5 5 5 6 6 7 6 5 4 2 1 1 1 1 2 2 2 2 2 1 1 1 0 1 1 2 4 5 7 9 10 11 12 12 11 10 9 9 8 8 7 6 6 5 5 5 5 5 5 5 5 5 5 5 5 5 5 5
5 5 4 4 4 4 4 4 4 4 4 3 3 3 2 2 2 1 1 1 2 3 3 3 3 3 3 3 3 3 3 3 3 3 3 3 3 2 1 2 3 4 4 5 5 5 5 5 6 7 7 7 7 6 4 3 2 1 2 2 2 2 2 2 1 1 1 0 0 1 1 3 4 6 7 9 10 11 12 11 11 10 9 9 8 8 7 6 6 5 5 5 5 5 5 5 5 5 5 5 5 5 5
5 5 5 4 4 4 4 4 4 5 5 4 4 3 3 3 2 2 1 2 2 3 3 3 3 3 3 3 3 3 3 3 3 3 3 3 3 3 2 2 2 3 3 4 4 4 5 5 6 6 7 7 7 7 6 4 3 3 2 3 3 3 2 2 2 1 1 1 1 1 1 2 3 4 6 7 8 10 11 11 11 10 10 9 9 8 8 7 6 6 5 5 5 5 5 5 5 5 5 5 5 5 4
5 4 4 4 4 4 4 4 4 4 4 4 4 4 3 3 2 2 2 2 2 3 3 3 3 3 3 3 3 3 3 2 3 3 4 4 4 3 3 2 2 2 2 3 4 4 4 5 5 6 7 7 8 7 7 6 5 4 4 3 3 3 3 3 2 2 1 1 1 1 1 1 2 4 5 6 7 8 9 10 10 10 10 10 9 9 8 8 7 6 6 5 5 5 5 5 5 5 5 5 5 5 4
8 6 5 4 4 3 3 3 3 3 3 3 4 4 3 3 2 2 2 2 2 2 2 2 2 2 2 2 3 3 3 2 3 3 4 4 4 4 4 3 2 1 2 3 3 3 4 4 5 6 7 8 8 7 7 7 6 5 5 4 4 4 4 3 3 2 2 2 2 1 1 1 2 3 4 5 6 7 8 9 9 10 10 10 9 9 9 8 8 7 6 6 6 5 5 5 5 5 5 5 5 5 5
11 10 8 7 5 4 3 3 2 2 2 2 3 3 3 3 3 3 2 2 2 1 1 1 1 1 2 2 3 3 3 3 3 3 4 4 4 4 4 3 3 2 2 2 3 3 3 4 4 5 6 7 7 7 7 7 7 6 6 5 5 5 5 4 4 3 3 3 2 2 1 1 2 3 4 5 5 6 7 8 8 9 9 10 10 9 9 9 8 8 7 7 6 6 6 5 5 5 5 5 5 5 5
12 12 11 10 8 7 5 4 3 3 2 2 2 3 3 3 3 3 3 2 2 2 1 -0 -0 0 1 2 3 3 4 4 3 4 4 4 5 5 5 4 3 2 2 2 2 2 2 3 4 5 6 6 7 7 7 7 7 7 6 6 6 6 5 5 5 4 4 3 3 2 2 2 2 3 4 4 5 6 6 7 7 8 9 9 9 9 9 9 9 9 8 8 7 7 6 6 5 5 5 5 5 5 5
12 12 12 12 12 10 9 7 6 5 4 3 3 3 3 3 3 3 2 2 2 2 2 1 0 0 1 2 3 4 4 4 4 4 5 5 5 5 4 4 3 3 3 3 3 3 2 3 4 4 5 6 6 7 7 7 7 7 7 7 7 6 6 6 5 5 4 4 3 3 2 2 3 3 3 4 5 5 6 6 7 7 8 8 9 9 9 9 9 9 9 8 8 7 7 6 6 6 5 5 5 5 5
11 11 12 13 13 13 12 11 10 9 8 7 6 5 4 4 3 3 3 2 3 3 3 3 3 3 3 4 5 5 5 5 5 5 5 5 5 5 5 4 3 3 3 3 3 3 3 3 3 4 4 5 6 6 7 7 7 8 8 8 7 7 7 6 6 5 5 5 4 4 3 3 3 3 3 4 5 5 6 6 6 7 7 7 8 9 9 9 10 10 9 9 9 8 8 7 7 6 5 5 5 5 5
11 11 12 13 13 13 14 14 13 13 12 11 10 9 8 7 6 5 5 5 6 6 8 8 8 8 8 8 8 8 7 6 6 5 5 5 5 5 5 4 4 3 2 3 3 3 3 4 4 4 4 4 5 5 5 6 7 8 8 8 8 8 7 7 6 6 5 5 5 4 3 3 3 3 4 4 4 5 5 6 6 6 6 7 7 8 9 9 10 10 10 10 9 9 8 8 8 7 6 6 5 5 5
10 11 12 12 13 14 14 14 15 15 15 15 14 14 14 13 13 12 12 13 13 13 13 14 14 13 13 12 12 11 10 8 7 6 5 6 6 5 5 5 4 3 2 3 4 4 5 5 4 4 4 4 5 5 5 5 6 7 7 8 8 8 8 7 6 6 6 5 5 4 3 3 3 3 4 4 4 5 5 5 5 5 6 6 7 8 9 9 10 10 10 10 9 9 9 9 8 8 7 6 6 5 5
6 7 9 11 12 14 15 15 15 15 16 16 17 18 19 19 20 20 20 19 19 18 17 16 16 16 17 16 15 14 13 10 9 8 7 7 7 6 6 6 5 4 4 4 5 6 6 5 5 4 4 4 4 5 5 5 5 6 7 8 8 8 8 8 7 7 6 5 5 4 3 3 3 4 4 4 4 5 5 5 5 5 5 6 6 7 8 9 9 10 10 9 9 9 9 9 9 8 8 7 7 6 5
2 3 4 7 9 11 13 14 15 16 16 16 17 18 19 19 19 19 18 17 16 15 15 14 14 14 15 16 16 15 14 12 11 10 9 8 8 7 6 6 6 6 6 6 6 7 6 5 4 4 4 4 5 5 5 5 5 6 7 7 8 8 9 8 8 8 7 6 5 5 4 4 3 3 4 4 4 4 5 5 5 5 5 5 6 7 8 8 9 9 9 9 9 9 9 9 8 8 8 8 7 7 6
1 2 2 3 4 6 9 11 12 13 14 14 14 13 13 11 10 9 8 8 8 8 9 9 9 10 11 11 12 12 12 12 11 10 8 7 7 7 6 6 6 8 9 8 7 6 5 4 3 3 3 4 5 6 6 6 6 6 7 7 7 8 9 8 8 8 7 7 6 5 4 4 3 3 4 4 4 4 4 4 4 4 5 5 6 6 7 8 8 9 9 9 8 8 8 8 8 8 8 8 7 7 7
2 2 2 2 2 3 4 6 7 8 8 8 8 6 4 2 1 -1 -1 -1 0 2 3 3 4 5 6 7 8 8 9 9 9 8 7 5 5 6 8 9 9 9 10 8 7 5 4 3 3 3 4 4 5 6 6 6 6 7 7 7 7 8 8 8 8 7 7 7 7 6 5 4 4 4 4 4 4 4 4 4 4 4 4 5 5 6 7 7 8 8 8 8 8 8 8 8 8 8 8 7 7 7 7
5 4 4 3 3 2 2 2 2 3 2 2 1 -0 -2 -3 -5 -6 -6 -6 -5 -3 -1 -1 0 1 2 3 5 5 6 6 6 5 6 7 6 6 9 12 12 9 7 6 5 5 4 4 4 4 4 4 5 5 6 7 7 7 7 7 7 8 8 8 7 6 6 7 7 7 7 5 4 4 4 4 4 4 4 4 4 4 4 4 5 6 6 7 7 7 7 8 8 8 8 7 7 7 7 7 7 7 7
8 7 6 5 4 3 2 1 0 0 -0 -1 -2 -3 -4 -5 -6 -6 -7 -6 -6 -4 -3 -2 -1 -1 -1 1 3 3 3 3 3 3 5 9 11 10 8 5 4 4 4 6 8 9 7 7 6 5 4 4 5 6 7 7 7 7 7 7 8 8 8 8 7 6 5 6 7 8 8 7 5 4 3 3 3 4 4 4 4 4 4 4 4 5 6 6 6 7 7 7 8 8 7 7 7 7 7 7 7 7 7
12 11 10 9 7 5 3 2 1 1 0 -0 -0 -1 -2 -2 -3 -3 -3 -3 -2 -2 -2 -1 0 1 2 2 2 3 3 3 4 6 7 8 10 10 6 2 3 5 7 10 13 13 11 9 8 7 7 7 8 8 8 7 7 7 7 8 8 9 9 8 6 5 5 6 7 8 8 7 6 4 3 3 3 4 4 4 4 4 4 4 4 5 5 5 6 6 7 7 8 8 8 7 7 7 7 7 7 7 7
9 10 10 10 10 9 8 6 4 2 1 1 1 2 2 2 2 2 1 1 2 2 3 4 4 4 5 5 5 5 6 6 7 9 10 7 5 6 9 10 11 12 11 8 6 5 8 7 9 11 13 11 10 9 8 7 7 8 8 9 9 9 9 8 7 6 6 6 7 8 8 7 6 5 4 4 4 4 4 4 4 4 3 4 4 4 4 4 5 6 7 8 8 8 8 7 7 6 7 7 7 8 7
3 3 4 6 8 10 10 10 8 7 5 3 3 2 3 3 4 5 5 6 6 7 8 9 8 7 5 7 9 10 10 10 10 9 9 8 5 4 7 11 12 10 8 5 3 3 5 8 11 13 14 13 11 10 9 9 9 9 9 9 9 9 9 8 7 7 7 7 7 7 7 7 6 5 4 4 4 4 4 4 4 4 3 3 4 4 4 4 4 5 6 8 8 8 7 7 6 6 7 7 8 8 8
3 2 2 3 5 7 9 11 12 11 10 8 6 5 4 5 6 7 8 9 10 9 9 9 9 10 8 9 11 13 12 12 11 9 8 8 7 6 5 6 7 7 7 9 9 9 10 12 12 10 10 8 8 9 9 9 9 9 9 9 9 9 9 8 8 8 8 8 7 7 7 7 6 5 5 4 4 4 4 4 4 4 4 4 4 4 4 3 4 5 6 7 8 7 7 6 6 7 7 8 8 8 8
7 7 6 6 6 7 9 11 12 13 13 12 11 10 8 8 8 9 9 10 10 10 10 10 11 12 12 11 11 12 12 11 11 10 9 8 8 8 6 6 5 5 6 8 8 9 9 6 4 4 5 4 5 6 7 8 8 8 8 9 9 9 9 9 8 8 8 7 7 7 8 7 6 6 5 4 4 4 4 4 4 4 4 4 4 4 4 3 4 5 6 7 7 6 6 6 6 7 7 8 8 8 8
12 12 11 12 12 13 13 13 14 15 15 15 14 13 12 11 10 10 10 11 12 13 13 13 12 12 13 11 10 9 9 8 9 9 10 9 8 7 5 6 5 5 5 5 5 6 5 2 3 4 4 5 6 7 6 8 9 9 9 9 10 10 10 10 9 9 8 7 7 8 8 8 7 7 6 5 4 4 4 4 4 4 4 4 4 4 4 4 4 5 6 6 6 6 5 5 6 6 7 7 7 7 7
14 14 15 15 16 17 18 17 17 17 17 16 15 14 12 11 10 10 10 11 12 12 13 12 11 11 10 10 9 8 7 6 6 6 8 8 7 6 4 3 3 4 6 6 4 3 2 6 9 8 4 8 10 10 7 7 8 9 10 10 10 10 10 10 10 9 9 8 8 8 8 8 8 7 6 6 5 5 4 4 4 4 4 4 4 4 4 4 4 5 6 6 5 5 5 5 6 6 6 6 6 6 6
14 15 15 16 16 17 19 20 20 19 18 16 15 13 11 11 10 9 8 9 9 8 8 8 9 9 8 7 7 6 5 5 4 3 3 4 5 4 3 3 3 3 4 4 5 5 2 6 6 6 5 5 8 10 11 9 7 7 8 9 9 9 9 10 10 9 9 9 9 9 9 9 9 8 7 7 6 5 5 4 4 4 4 5 5 5 5 5 5 5 5 5 5 5 5 5 5 5 5 4 4 5 5
13 14 14 13 13 13 15 18 20 21 21 18 16 13 11 9 8 7 7 6 6 5 4 4 5 6 6 5 4 4 4 4 3 2 0 1 2 2 2 2 2 2 2 3 4 5 5 6 4 4 7 6 5 6 10 11 11 10 9 8 8 8 9 9 9 9 9 9 9 9 9 9 9 9 9 8 7 6 6 5 5 5 5 5 5 6 6 6 5 5 5 5 5 5 5 5 5 4 4 3 3 4 5
10 11 11 10 9 8 8 11 15 19 22 21 19 16 12 9 7 6 5 5 4 4 3 2 2 3 3 3 3 3 3 4 3 2 -0 1 2 2 2 3 3 4 4 4 5 5 6 6 6 6 7 8 7 6 5 8 11 13 13 11 9 7 8 8 9 9 9 8 8 8 9 9 9 9 9 8 8 7 6 6 6 6 6 6 6 6 6 6 6 5 5 5 4 4 5 5 4 4 3 3 4 5 6
Height
3196 3196 3196 3196 3196 3196 3196 3196 3195 3195 3195 3195 3195 3195 3195 3195 3195 3195 3195 3194 3194 3194 3194 3193 3193 3193 3193 3193 3193 3193 3193 3193 3193 3193 3193 3193 3193 3193 3193 3193 3193 3193 3193 3193 3193 3193 3193 3193 3193 3193 3193 3193 3193 3193 3193 3193 3193 3192 3192 3192 3192 3192 3192 3192 3192 3192 3192 3192 3191 3191 3191 3191 3190 3190 3190 3190 3190 3191 3190 3189 3188 3188 3189 3189 3188 3188 3187 3188 3187 3187 3187 3186 3185 3185 3185 3185 3184 3185 3185 3184 3184 3184 3183
3196 3197 3196 3196 3196 3196 3196 3196 3196 3196 3196 3196 3196 3196 3196 3196 3195 3195 3195 3195 3195 3195 3194 3194 3194 3194 3194 3194 3194 3194 3194 3194 3193 3193 3193 3193 3193 3193 3193 3193 3193 3193 3193 3193 3193 3193 3193 3193 3193 3193 3193 3193 3193 3193 3193 3193 3193 3193 3192 3192 3192 3192 3192 3192 3192 3192 3192 3191 3191 3191 3191 3191 3190 3190 3190 3190 3190 3190 3190 3189 3188 3188 3188 3188 3188 3188 3187 3187 3187 3186 3186 3186 3185 3185 3184 3184 3184 3184 3184 3184 3184 3184 3183
3197 3197 3197 3197 3197 3196 3196 3196 3196 3196 3196 3196 3196 3196 3196 3196 3196 3196 3196 3196 3195 3195 3195 3195 3195 3194 3194 3194 3194 3194 3194 3194 3194 3194 3194 3194 3194 3194 3194 3194 3194 3194 3193 3193 3193 3193 3193 3193 3193 3193 3193 3193 3193 3193 3193 3193 3193 3193 3193 3193 3192 3192 3192 3192 3192 3192 3192 3191 3191 3191 3191 3191 3190 3190 3190 3190 3190 3190 3190 3190 3189 3188 3188 3187 3187 3187 3187 3187 3187 3186 3186 3186 3186 3185 3184 3184 3184 3184 3184 3184 3184 3183 3183
3197 3197 3197 3197 3197 3197 3197 3197 3196 3196 3197 3197 3197 3197 3197 3197 3196 3196 3196 3196 3196 3196 3196 3195 3195 3195 3195 3195 3195 3195 3195 3194 3194 3194 3194 3194 3194 3194 3194 3194 3194 3194 3194 3194 3194 3194 3194 3194 3194 3193 3193 3194 3194 3194 3194 3194 3193 3193 3193 3193 3193 3193 3193 3192 3192 3192 3192 3191 3191 3191 3191 3191 3190 3190 3190 3189 3189 3189 3189 3189 3189 3188 3188 3187 3187 3187 3187 3187 3187 3187 3186 3186 3186 3185 3184 3184 3184 3183 3183 3183 3183 3183 3183
3197 3197 3197 3197 3197 3197 3197 3197 3197 3197 3197 3197 3197 3197 3197 3197 3197 3197 3197 3197 3196 3196 3196 3196 3196 3196 3195 3195 3195 3195 3195 3195 3195 3195 3195 3195 3195 3195 3195 3195 3195 3195 3195 3195 3195 3195 3195 3194 3194 3194 3194 3194 3194 3194 3194 3194 3194 3194 3193 3193 3193 3193 3193 3193 3192 3192 3192 3192 3191 3191 3191 3190 3190 3190 3189 3189 3189 3189 3189 3189 3189 3188 3188 3187 3187 3187 3187 3187 3187 3187 3186 3186 3186 3185 3184 3184 3183 3183 3183 3183 3183 3183 3183
3197 3197 3197 3197 3197 3197 3197 3197 3197 3197 3198 3198 3198 3198 3198 3198 3198 3198 3198 3197 3197 3197 3197 3196 3196 3196 3196 3196 3196 3195 3195 3195 3195 3195 3195 3195 3195 3195 3195 3195 3195 3195 3195 3195 3195 3195 3195 3195 3195 3195 3194 3194 3194 3194 3194 3194 3194 3194 3194 3193 3193 3193 3193 3193 3192 3192 3192 3192 3191 3191 3191 3190 3190 3190 3189 3189 3189 3189 3189 3189 3189 3188 3188 3187 3187 3187 3187 3187 3187 3186 3186 3186 3186 3185 3185 3184 3183 3183 3183 3183 3183 3183 3182
3198 3197 3197 3197 3197 3197 3197 3198 3198 3198 3198 3198 3199 3199 3199 3199 3199 3198 3198 3198 3198 3197 3197 3197 3197 3197 3196 3196 3196 3196 3196 3196 3196 3196 3196 3196 3196 3196 3196 3196 3196 3196 3196 3196 3196 3196 3196 3196 3195 3195 3195 3195 3195 3195 3195 3194 3194 3194 3194 3193 3193 3193 3193 3193 3192 3192 3192 3192 3191 3191 3191 3191 3190 3190 3190 3189 3189 3189 3189 3188 3188 3188 3188 3187 3187 3186 3186 3186 3186 3186 3186 3186 3185 3185 3184 3184 3184 3183 3183 3183 3183 3182 3182
3198 3198 3197 3197 3198 3198 3198 3198 3198 3198 3199 3199 3199 3199 3199 3199 3199 3199 3199 3199 3198 3198 3198 3198 3198 3197 3197 3197 3197 3197 3196 3196 3196 3196 3196 3196 3196 3196 3196 3196 3196 3196 3196 3196 3196 3196 3196 3196 3196 3196 3195 3195 3195 3195 3195 3194 3194 3194 3194 3193 3193 3193 3193 3192 3192 3192 3192 3191 3191 3191 3191 3190 3190 3190 3190 3189 3189 3188 3188 3188 3188 3188 3187 3187 3186 3186 3186 3186 3186 3186 3186 3185 3185 3185 3184 3184 3183 3183 3183 3183 3182 3182 3182
3198 3198 3198 3198 3198 3198 3198 3199 3199 3199 3199 3200 3200 3200 3200 3200 3200 3199 3199 3199 3199 3199 3199 3198 3198 3198 3198 3198 3198 3198 3197 3197 3197 3197 3197 3197 3197 3197 3197 3197 3197 3197 3196 3196 3196 3196 3196 3196 3196 3196 3196 3196 3195 3195 3195 3194 3194 3194 3193 3193 3193 3193 3192 3192 3192 3192 3191 3191 3191 3191 3190 3190 3190 3190 3190 3189 3189 3188 3188 3188 3188 3187 3187 3187 3186 3186 3186 3186 3185 3185 3185 3185 3185 3184 3184 3183 3183 3183 3183 3182 3182 3182 3182
3198 3198 3198 3198 3199 3199 3199 3199 3199 3200 3200 3200 3200 3200 3200 3200 3200 3200 3200 3200 3199 3199 3199 3199 3199 3199 3199 3199 3199 3198 3198 3198 3198 3198 3198 3198 3198 3198 3197 3197 3197 3197 3197 3197 3197 3197 3197 3196 3196 3196 3196 3196 3195 3195 3195 3194 3194 3194 3194 3193 3193 3193 3192 3192 3192 3191 3191 3191 3191 3191 3190 3190 3190 3190 3189 3189 3188 3188 3188 3188 3187 3187 3187 3186 3186 3186 3186 3185 3185 3185 3185 3184 3184 3184 3184 3183 3183 3182 3182 3182 3182 3182 3181
3199 3199 3199 3199 3199 3199 3199 3200 3200 3200 3200 3201 3201 3201 3201 3200 3200 3200 3200 3200 3200 3200 3200 3200 3199 3199 3199 3199 3199 3199 3199 3199 3199 3199 3198 3198 3198 3198 3198 3198 3198 3198 3197 3197 3197 3197 3197 3196 3196 3196 3196 3196 3195 3195 3195 3195 3194 3194 3194 3193 3193 3193 3192 3192 3192 3191 3191 3191 3191 3191 3190 3190 3190 3189 3189 3189 3188 3188 3188 3187 3187 3187 3186 3186 3186 3186 3185 3185 3185 3185 3184 3184 3184 3184 3183 3183 3183 3182 3182 3182 3182 3181 3181
3199 3199 3199 3199 3199 3200 3200 3200 3200 3201 3201 3201 3201 3201 3201 3201 3201 3200 3200 3200 3200 3200 3200 3200 3200 3200 3200 3200 3200 3200 3199 3199 3199 3199 3199 3199 3199 3199 3198 3198 3198 3198 3198 3197 3197 3197 3197 3197 3196 3196 3196 3196 3196 3195 3195 3195 3194 3194 3194 3193 3193 3193 3192 3192 3192 3191 3191 3191 3191 3190 3190 3190 3189 3189 3189 3188 3188 3188 3187 3187 3187 3186 3186 3186 3186 3185 3185 3185 3184 3184 3184 3184 3183 3183 3183 3183 3182 3182 3182 3182 3182 3181 3181
3199 3199 3199 3200 3200 3200 3200 3201 3201 3201 3201 3201 3201 3201 3201 3201 3201 3201 3201 3200 3200 3200 3200 3200 3200 3200 3200 3200 3200 3200 3200 3200 3200 3199 3199 3199 3199 3199 3199 3199 3198 3198 3198 3198 3198 3197 3197 3197 3196 3196 3196 3196 3196 3195 3195 3195 3194 3194 3194 3194 3193 3193 3192 3192 3192 3191 3191 3191 3191 3190 3190 3190 3189 3189 3188 3188 3188 3187 3187 3187 3186 3186 3186 3186 3185 3185 3185 3184 3184 3184 3184 3183 3183 3183 3183 3182 3182 3182 3182 3182 3181 3181 3181
3199 3199 3200 3200 3200 3200 3201 3201 3201 3201 3201 3201 3201 3201 3201 3201 3201 3201 3201 3201 3201 3200 3200 3200 3200 3200 3200 3200 3200 3200 3200 3200 3200 3200 3199 3199 3199 3199 3199 3199 3199 3199 3198 3198 3198 3198 3197 3197 3196 3196 3196 3196 3196 3195 3195 3195 3195 3194 3194 3194 3193 3193 3192 3192 3192 3191 3191 3191 3190 3190 3190 3189 3189 3189 3188 3188 3187 3187 3187 3186 3186 3186 3186 3185 3185 3185 3184 3184 3184 3184 3183 3183 3183 3183 3182 3182 3182 3182 3182 3181 3181 3181 3181
3199 3199 3200 3200 3200 3201 3201 3201 3201 3201 3201 3201 3201 3201 3201 3201 3201 3201 3201 3201 3201 3201 3200 3200 3200 3200 3200 3200 3200 3200 3200 3200 3200 3200 3200 3199 3199 3199 3199 3199 3199 3199 3199 3198 3198 3198 3197 3197 3197 3196 3196 3196 3196 3195 3195 3195 3194 3194 3194 3193 3193 3193 3192 3192 3191 3191 3191 3191 3190 3190 3190 3189 3189 3188 3188 3188 3187 3187 3186 3186 3186 3186 3185 3185 3185 3184 3184 3184 3184 3183 3183 3183 3183 3182 3182 3182 3182 3182 3181 3181 3181 3181 3181
3199 3199 3200 3200 3200 3201 3201 3201 3201 3201 3201 3201 3201 3201 3201 3201 3201 3201 3201 3201 3201 3201 3200 3200 3200 3200 3200 3200 3200 3200 3200 3200 3200 3200 3200 3199 3199 3199 3199 3199 3199 3199 3199 3198 3198 3198 3197 3197 3197 3196 3196 3196 3196 3195 3195 3195 3194 3194 3194 3193 3193 3193 3192 3192 3191 3191 3191 3190 3190 3190 3189 3189 3189 3188 3188 3187 3187 3187 3186 3186 3186 3185 3185 3185 3184 3184 3184 3184 3183 3183 3183 3183 3182 3182 3182 3182 3182 3181 3181 3181 3181 3181 3181
3199 3199 3199 3200 3200 3200 3201 3201 3201 3201 3201 3201 3201 3201 3201 3201 3201 3201 3201 3201 3201 3201 3200 3200 3200 3200 3200 3200 3200 3200 3200 3200 3200 3200 3199 3199 3199 3199 3199 3199 3199 3199 3199 3198 3198 3198 3198 3197 3197 3196 3196 3196 3196 3195 3195 3194 3194 3194 3193 3193 3193 3192 3192 3192 3191 3191 3191 3190 3190 3189 3189 3189 3188 3188 3188 3187 3187 3186 3186 3186 3186 3185 3185 3185 3184 3184 3184 3183 3183 3183 3183 3182 3182 3182 3182 3182 3181 3181 3181 3181 3181 3180 3180
3199 3199 3199 3199 3200 3200 3200 3200 3201 3201 3201 3201 3201 3201 3201 3200 3200 3200 3200 3200 3200 3200 3200 3200 3200 3200 3200 3200 3200 3200 3200 3200 3200 3199 3199 3199 3199 3199 3199 3199 3199 3199 3199 3198 3198 3198 3198 3197 3197 3196 3196 3196 3196 3195 3195 3194 3194 3194 3193 3193 3192 3192 3192 3192 3191 3191 3190 3190 3190 3189 3189 3188 3188 3188 3187 3187 3187 3186 3186 3186 3185 3185 3185 3184 3184 3184 3183 3183 3183 3183 3182 3182 3182 3182 3182 3181 3181 3181 3181 3181 3180 3180 3180
3199 3199 3199 3199 3200 3200 3200 3200 3200 3200 3200 3200 3200 3200 3200 3200 3200 3200 3200 3200 3200 3200 3200 3200 3200 3200 3200 3200 3200 3200 3199 3199 3199 3199 3199 3199 3199 3199 3199 3199 3199 3199 3199 3198 3198 3198 3198 3197 3197 3196 3196 3196 3195 3195 3195 3194 3194 3193 3193 3193 3192 3192 3191 3191 3191 3191 3190 3190 3189 3189 3188 3188 3188 3187 3187 3187 3186 3186 3186 3186 3185 3185 3185 3184 3184 3184 3183 3183 3183 3182 3182 3182 3182 3182 3181 3181 3181 3181 3181 3180 3180 3180 3180
3198 3198 3199 3199 3199 3199 3200 3199 3199 3199 3200 3200 3200 3200 3200 3200 3200 3200 3200 3200 3200 3200 3200 3200 3200 3200 3200 3200 3199 3199 3199 3199 3199 3199 3199 3199 3199 3199 3199 3199 3199 3199 3198 3198 3198 3198 3198 3197 3197 3196 3196 3196 3195 3195 3194 3194 3194 3193 3193 3192 3192 3192 3191 3191 3191 3190 3190 3190 3189 3189 3188 3188 3187 3187 3187 3186 3186 3186 3186 3185 3185 3185 3184 3184 3184 3183 3183 3183 3182 3182 3182 3182 3181 3181 3181 3181 3181 3181 3180 3180 3180 3180 3179
3198 3198 3198 3199 3199 3199 3199 3199 3199 3199 3199 3199 3199 3199 3199 3199 3199 3199 3199 3199 3199 3199 3199 3199 3199 3199 3199 3199 3199 3199 3199 3199 3199 3199 3199 3199 3199 3199 3199 3199 3199 3198 3198 3198 3198 3198 3198 3197 3196 3196 3196 3195 3195 3195 3194 3194 3193 3193 3193 3192 3192 3191 3191 3191 3190 3190 3190 3189 3189 3188 3188 3187 3187 3187 3186 3186 3186 3186 3185 3185 3185 3184 3184 3184 3183 3183 3183 3182 3182 3182 3182 3181 3181 3181 3181 3181 3180 3180 3180 3180 3180 3179 3179
3197 3197 3198 3198 3198 3199 3199 3199 3199 3198 3198 3198 3198 3198 3198 3198 3199 3199 3199 3199 3199 3199 3199 3199 3199 3199 3199 3199 3199 3199 3199 3199 3199 3199 3198 3198 3198 3198 3198 3198 3198 3198 3198 3198 3198 3198 3198 3197 3196 3196 3195 3195 3195 3194 3194 3193 3193 3193 3192 3192 3192 3191 3191 3191 3190 3190 3189 3189 3188 3188 3187 3187 3186 3186 3186 3186 3186 3185 3185 3185 3184 3184 3184 3183 3183 3183 3182 3182 3182 3181 3181 3181 3181 3181 3181 3180 3180 3180 3180 3179 3179 3179 3179
3196 3197 3197 3197 3197 3198 3198 3198 3198 3198 3198 3198 3198 3198 3198 3198 3198 3198 3198 3198 3198 3198 3198 3198 3198 3198 3198 3198 3198 3198 3198 3198 3198 3198 3198 3198 3198 3198 3198 3198 3198 3198 3197 3197 3197 3197 3197 3197 3196 3196 3195 3195 3194 3194 3194 3193 3193 3192 3192 3192 3191 3191 3191 3190 3190 3189 3189 3188 3188 3187 3187 3186 3186 3186 3186 3185 3185 3185 3184 3184 3184 3184 3183 3183 3183 3182 3182 3182 3181 3181 3181 3181 3181 3180 3180 3180 3180 3179 3179 3179 3179 3178 3178
3196 3196 3196 3196 3197 3197 3197 3197 3197 3197 3197 3197 3197 3197 3197 3197 3197 3197 3197 3197 3198 3198 3198 3198 3198 3198 3198 3197 3197 3198 3198 3198 3198 3197 3198 3198 3198 3197 3197 3197 3197 3197 3197 3197 3197 3197 3197 3196 3196 3195 3195 3194 3194 3194 3193 3193 3192 3192 3192 3191 3191 3191 3190 3190 3189 3189 3188 3188 3187 3187 3186 3186 3186 3185 3185 3185 3185 3184 3184 3184 3183 3183 3183 3183 3182 3182 3181 3181 3181 3181 3180 3180 3180 3180 3179 3179 3179 3179 3179 3178 3178 3178 3178
3196 3196 3196 3196 3196 3196 3196 3197 3197 3197 3197 3197 3197 3196 3196 3196 3196 3197 3197 3197 3197 3197 3197 3197 3197 3197 3197 3197 3197 3197 3197 3197 3197 3197 3197 3197 3197 3197 3197 3197 3196 3196 3196 3196 3196 3196 3196 3196 3196 3195 3194 3194 3193 3193 3193 3192 3192 3191 3191 3191 3191 3190 3190 3189 3189 3188 3188 3187 3187 3186 3186 3186 3185 3185 3185 3184 3184 3184 3183 3183 3183 3182 3182 3182 3182 3181 3181 3181 3181 3180 3180 3180 3179 3179 3179 3179 3178 3178 3178 3178 3177 3177 3177
3195 3195 3195 3195 3196 3196 3196 3196 3196 3196 3196 3196 3196 3196 3196 3196 3196 3196 3196 3196 3196 3196 3197 3197 3197 3197 3197 3197 3196 3196 3196 3196 3196 3196 3196 3196 3196 3196 3196 3196 3196 3196 3196 3195 3195 3196 3196 3196 3195 3194 3194 3193 3193 3192 3192 3192 3191 3191 3191 3190 3190 3190 3189 3189 3188 3188 3187 3187 3186 3186 3186 3185 3185 3184 3184 3184 3183 3183 3183 3182 3182 3182 3182 3181 3181 3181 3181 3180 3180 3180 3179 3179 3179 3179 3178 3178 3178 3177 3177 3177 3177 3177 3176
3195 3195 3195 3195 3195 3195 3195 3195 3195 3195 3195 3196 3196 3196 3196 3196 3195 3195 3195 3196 3196 3196 3196 3196 3196 3196 3196 3196 3196 3196 3196 3196 3196 3196 3196 3196 3196 3196 3196 3196 3195 3195 3195 3195 3195 3195 3195 3195 3195 3194 3193 3192 3192 3192 3191 3191 3191 3191 3190 3190 3189 3189 3189 3188 3188 3187 3187 3186 3186 3186 3185 3185 3184 3184 3183 3183 3183 3182 3182 3182 3182 3181 3181 3181 3181 3180 3180 3180 3179 3179 3179 3179 3178 3178 3178 3177 3177 3177 3177 3176 3176 3176 3176
3194 3194 3194 3194 3194 3194 3194 3194 3195 3195 3195 3195 3195 3195 3195 3195 3195 3195 3195 3195 3195 3195 3195 3195 3196 3196 3196 3196 3196 3196 3196 3196 3196 3195 3195 3195 3195 3195 3195 3195 3195 3194 3194 3194 3194 3194 3194 3194 3194 3193 3193 3192 3191 3191 3191 3191 3190 3190 3189 3189 3189 3188 3188 3188 3187 3187 3186 3186 3186 3185 3184 3184 3183 3183 3183 3182 3182 3182 3181 3181 3181 3181 3181 3180 3180 3180 3179 3179 3179 3179 3178 3178 3178 3177 3177 3177 3177 3176 3176 3176 3176 3176 3175
3193 3193 3193 3193 3193 3193 3193 3193 3193 3194 3194 3194 3194 3194 3194 3194 3194 3194 3194 3194 3194 3194 3194 3194 3195 3195 3195 3195 3195 3195 3195 3195 3195 3195 3195 3194 3194 3194 3194 3194 3194 3194 3193 3193 3193 3193 3193 3193 3193 3193 3192 3191 3191 3190 3190 3190 3190 3189 3189 3188 3188 3188 3187 3187 3186 3186 3186 3185 3185 3184 3184 3183 3183 3182 3182 3182 3181 3181 3181 3181 3181 3180 3180 3180 3179 3179 3179 3179 3178 3178 3178 3177 3177 3177 3177 3176 3176 3176 3176 3176 3175 3175 3175
3192 3192 3192 3192 3192 3193 3192 3192 3192 3192 3192 3193 3193 3193 3193 3193 3193 3193 3193 3193 3193 3193 3193 3193 3193 3194 3194 3194 3194 3194 3194 3194 3194 3194 3194 3194 3193 3193 3193 3193 3193 3193 3192 3192 3192 3192 3192 3192 3192 3192 3192 3191 3190 3189 3189 3189 3189 3188 3188 3188 3187 3187 3186 3186 3186 3186 3185 3185 3184 3184 3183 3183 3182 3182 3181 3181 3181 3181 3180 3180 3180 3179 3179 3179 3179 3178 3178 3178 3178 3177 3177 3177 3177 3176 3176 3176 3176 3175 3175 3175 3175 3174 3174
3191 3191 3191 3191 3191 3191 3192 3191 3191 3191 3191 3191 3192 3192 3192 3192 3192 3191 3192 3192 3192 3192 3192 3192 3192 3192 3193 3193 3193 3193 3193 3193 3193 3193 3192 3192 3192 3192 3192 3192 3192 3191 3191 3191 3191 3191 3191 3191 3191 3191 3191 3191 3190 3189 3188 3188 3188 3188 3187 3187 3187 3186 3186 3186 3185 3185 3184 3184 3183 3183 3182 3182 3181 3181 3181 3180 3180 3180 3179 3179 3179 3179 3178 3178 3178 3178 3177 3177 3177 3177 3176 3176 3176 3176 3176 3175 3175 3175 3175 3174 3174 3174 3174
3190 3190 3190 3190 3191 3191 3191 3191 3191 3190 3190 3190 3190 3191 3191 3191 3191 3191 3191 3191 3191 3191 3191 3191 3191 3191 3191 3192 3192 3192 3191 3191 3191 3191 3191 3191 3191 3191 3191 3191 3191 3191 3190 3190 3189 3189 3190 3190 3190 3191 3190 3190 3190 3189 3188 3187 3187 3187 3186 3186 3186 3186 3185 3185 3184 3184 3184 3183 3183 3182 3182 3181 3181 3180 3180 3180 3179 3179 3179 3178 3178 3178 3178 3177 3177 3177 3177 3176 3176 3176 3176 3176 3176 3175 3175 3175 3174 3174 3174 3174 3173 3173 3173
3188 3189 3189 3190 3190 3190 3189 3190 3190 3190 3189 3189 3189 3189 3190 3190 3191 3191 3190 3190 3190 3190 3190 3190 3190 3190 3190 3191 3191 3191 3191 3190 3190 3190 3190 3190 3190 3190 3190 3190 3190 3190 3189 3189 3188 3188 3188 3189 3189 3189 3189 3189 3189 3188 3187 3186 3186 3186 3186 3185 3185 3185 3184 3184 3183 3183 3183 3182 3182 3181 3181 3181 3180 3180 3179 3179 3178 3178 3178 3177 3177 3177 3177 3176 3176 3176 3176 3176 3176 3176 3175 3175 3175 3175 3174 3174 3174 3173 3173 3173 3173 3172 3172
3187 3187 3188 3188 3188 3188 3188 3188 3189 3189 3188 3188 3187 3187 3188 3189 3189 3189 3190 3189 3189 3189 3189 3189 3189 3189 3189 3189 3189 3189 3189 3189 3189 3189 3189 3189 3188 3188 3189 3189 3189 3188 3188 3187 3187 3187 3187 3187 3188 3188 3188 3188 3188 3187 3186 3185 3185 3185 3184 3184 3184 3184 3183 3183 3182 3182 3182 3181 3181 3181 3180 3180 3179 3179 3178 3178 3177 3177 3177 3176 3176 3176 3176 3176 3176 3175 3175 3175 3175 3175 3174 3174 3174 3174 3173 3173 3173 3173 3172 3172 3172 3172 3171
3186 3186 3186 3186 3186 3187 3187 3187 3187 3187 3187 3187 3187 3186 3186 3187 3187 3188 3188 3188 3188 3188 3188 3188 3188 3188 3188 3188 3188 3188 3188 3187 3187 3187 3187 3187 3187 3187 3187 3187 3187 3187 3187 3186 3186 3186 3185 3186 3186 3186 3187 3187 3187 3186 3186 3185 3184 3183 3183 3183 3183 3182 3182 3182 3181 3181 3181 3181 3180 3180 3179 3179 3178 3178 3177 3177 3176 3176 3176 3176 3175 3175 3175 3175 3174 3174 3174 3174 3174 3174 3173 3173 3173 3173 3172 3172 3172 3172 3171 3171 3171 3171 3171
3184 3184 3184 3184 3185 3185 3186 3186 3186 3186 3186 3186 3186 3185 3185 3185 3186 3186 3186 3187 3187 3186 3186 3186 3187 3187 3187 3186 3186 3186 3186 3186 3186 3186 3186 3186 3186 3186 3186 3186 3186 3186 3185 3185 3185 3184 3184 3184 3184 3185 3185 3185 3185 3185 3185 3184 3183 3182 3182 3182 3181 3181 3181 3181 3180 3180 3180 3179 3179 3179 3178 3178 3177 3177 3176 3176 3176 3175 3175 3175 3174 3174 3174 3173 3173 3173 3173 3173 3173 3173 3172 3172 3172 3172 3171 3171 3171 3171 3171 3171 3170 3170 3170
3182 3183 3183 3183 3183 3183 3183 3184 3184 3184 3184 3184 3184 3184 3184 3184 3184 3184 3185 3185 3185 3185 3185 3185 3185 3185 3186 3185 3185 3185 3185 3184 3184 3184 3184 3184 3184 3184 3184 3184 3184 3184 3184 3184 3183 3183 3182 3182 3182 3183 3183 3184 3184 3184 3183 3183 3182 3181 3181 3180 3180 3180 3180 3179 3179 3179 3178 3178 3178 3177 3177 3177 3176 3176 3176 3175 3175 3174 3174 3173 3173 3173 3172 3172 3172 3172 3172 3172 3171 3171 3171 3171 3171 3171 3170 3170 3170 3170 3170 3169 3169 3169 3169
3181 3181 3181 3181 3181 3181 3181 3182 3182 3182 3182 3183 3183 3183 3183 3182 3182 3182 3182 3183 3183 3184 3184 3183 3184 3184 3184 3184 3184 3183 3183 3183 3182 3182 3183 3183 3183 3183 3183 3183 3183 3183 3183 3182 3182 3181 3181 3181 3181 3181 3181 3182 3182 3182 3182 3181 3181 3180 3180 3179 3179 3178 3178 3178 3177 3177 3177 3177 3176 3176 3176 3176 3175 3175 3174 3174 3174 3173 3173 3172 3172 3172 3171 3171 3171 3171 3171 3171 3170 3170 3170 3170 3170 3169 3169 3169 3168 3168 3168 3168 3168 3168 3167
3179 3179 3180 3180 3180 3180 3180 3180 3180 3181 3181 3181 3181 3181 3181 3181 3181 3181 3181 3181 3181 3182 3182 3182 3182 3182 3182 3182 3182 3182 3181 3181 3181 3181 3181 3181 3181 3181 3181 3181 3181 3181 3181 3181 3181 3180 3180 3179 3179 3179 3179 3180 3180 3180 3180 3180 3180 3179 3179 3178 3177 3177 3177 3176 3176 3176 3176 3175 3175 3175 3175 3174 3174 3174 3173 3173 3172 3172 3171 3171 3171 3171 3170 3170 3170 3170 3169 3169 3169 3169 3169 3169 3168 3168 3168 3167 3167 3167 3167 3167 3166 3166 3166
3177 3177 3178 3178 3178 3178 3178 3178 3178 3179 3179 3179 3180 3180 3180 3180 3179 3179 3179 3179 3179 3180 3180 3180 3181 3181 3181 3181 3181 3180 3180 3180 3179 3179 3179 3179 3179 3180 3180 3179 3179 3179 3179 3179 3179 3179 3178 3178 3178 3177 3177 3177 3178 3178 3178 3178 3178 3178 3177 3177 3176 3176 3175 3175 3175 3174 3174 3174 3174 3173 3173 3173 3173 3172 3172 3171 3171 3171 3170 3170 3170 3169 3169 3169 3168 3168 3168 3168 3168 3167 3167 3167 3167 3167 3167 3166 3166 3166 3165 3165 3165 3165 3165
3175 3175 3176 3176 3176 3176 3176 3176 3176 3177 3177 3177 3178 3178 3178 3178 3178 3178 3177 3177 3177 3178 3178 3178 3179 3179 3179 3179 3179 3178 3178 3178 3177 3177 3177 3177 3177 3177 3178 3178 3177 3177 3177 3177 3177 3177 3176 3176 3176 3176 3176 3176 3176 3176 3176 3176 3176 3176 3176 3176 3175 3174 3174 3173 3173 3172 3172 3172 3172 3172 3171 3171 3171 3171 3171 3170 3170 3169 3169 3169 3168 3168 3168 3167 3167 3167 3166 3166 3166 3166 3166 3166 3166 3166 3166 3165 3165 3164 3164 3164 3164 3163 3163
3173 3173 3174 3174 3174 3174 3175 3175 3175 3175 3175 3176 3176 3176 3176 3176 3176 3176 3176 3176 3176 3176 3176 3176 3177 3177 3177 3177 3177 3177 3176 3176 3176 3176 3175 3175 3175 3175 3176 3176 3176 3176 3176 3175 3175 3175 3175 3175 3175 3174 3174 3174 3174 3174 3174 3174 3174 3174 3174 3174 3174 3173 3172 3172 3171 3171 3171 3170 3170 3170 3170 3170 3170 3169 3169 3169 3168 3168 3168 3167 3167 3166 3166 3166 3166 3166 3165 3165 3165 3165 3164 3164 3164 3164 3164 3164 3164 3163 3163 3162 3162 3162 3162
3171 3171 3171 3172 3172 3172 3172 3173 3173 3173 3173 3173 3174 3174 3174 3174 3174 3174 3174 3174 3174 3174 3174 3174 3175 3175 3175 3175 3175 3175 3175 3174 3174 3174 3173 3173 3173 3173 3173 3174 3174 3174 3174 3173 3173 3173 3173 3173 3173 3173 3172 3172 3172 3172 3172 3172 3172 3172 3172 3172 3172 3171 3171 3170 3170 3169 3169 3168 3168 3168 3168 3168 3168 3168 3167 3167 3167 3166 3166 3166 3165 3165 3165 3164 3164 3164 3164 3163 3163 3163 3163 3163 3162 3162 3162 3162 3162 3162 3161 3161 3161 3161 3160
3169 3169 3170 3170 3170 3171 3171 3171 3171 3171 3171 3171 3172 3172 3172 3172 3172 3172 3172 3172 3172 3172 3172 3172 3172 3172 3173 3173 3173 3173 3173 3172 3172 3172 3171 3171 3171 3171 3171 3172 3172 3172 3172 3171 3171 3171 3171 3171 3171 3171 3171 3170 3170 3170 3170 3170 3170 3170 3170 3170 3170 3170 3170 3169 3168 3168 3167 3166 3166 3166 3166 3166 3166 3166 3166 3165 3165 3165 3164 3164 3164 3163 3163 3163 3162 3162 3162 3162 3161 3161 3161 3161 3161 3161 3161 3161 3161 3161 3160 3160 3160 3159 3159
3168 3168 3168 3168 3169 3169 3169 3169 3169 3169 3169 3169 3170 3170 3170 3171 3171 3170 3170 3170 3170 3170 3170 3170 3170 3170 3170 3171 3171 3171 3171 3171 3171 3170 3169 3169 3169 3169 3169 3169 3170 3170 3170 3170 3169 3169 3168 3168 3169 3169 3169 3169 3168 3168 3167 3167 3168 3168 3168 3168 3168 3168 3168 3167 3167 3166 3166 3165 3164 3164 3164 3164 3164 3164 3164 3164 3163 3163 3163 3162 3162 3162 3161 3161 3161 3161 3160 3160 3160 3160 3159 3159 3159 3159 3159 3159 3159 3159 3158 3158 3158 3158 3158
3166 3166 3166 3166 3167 3167 3167 3167 3166 3166 3167 3167 3167 3168 3168 3169 3169 3169 3168 3168 3168 3168 3168 3167 3168 3168 3168 3168 3169 3169 3169 3169 3169 3168 3167 3167 3166 3166 3166 3167 3167 3168 3168 3168 3167 3167 3166 3166 3166 3167 3167 3167 3166 3166 3166 3165 3165 3166 3166 3166 3166 3166 3166 3166 3165 3165 3165 3164 3163 3162 3161 3161 3162 3162 3162 3161 3161 3161 3161 3161 3160 3160 3160 3159 3159 3159 3159 3158 3158 3158 3158 3157 3157 3157 3157 3157 3157 3156 3156 3156 3156 3156 3156
3165 3165 3165 3165 3165 3165 3165 3165 3165 3165 3165 3165 3166 3166 3166 3167 3167 3167 3167 3166 3166 3166 3166 3166 3166 3166 3166 3166 3167 3167 3167 3167 3167 3166 3166 3165 3165 3164 3164 3165 3165 3165 3165 3165 3165 3165 3164 3164 3164 3165 3165 3165 3165 3164 3164 3163 3163 3163 3163 3163 3163 3163 3163 3163 3163 3163 3163 3162 3161 3161 3160 3159 3159 3160 3160 3160 3159 3159 3159 3159 3158 3158 3158 3157 3157 3157 3157 3156 3156 3156 3156 3156 3155 3155 3155 3155 3155 3155 3154 3154 3154 3154 3154
3164 3164 3164 3164 3164 3163 3163 3163 3163 3163 3163 3163 3164 3164 3165 3165 3165 3165 3165 3165 3164 3164 3164 3164 3164 3164 3164 3165 3165 3165 3165 3165 3165 3164 3164 3163 3163 3162 3162 3162 3162 3163 3163 3163 3163 3162 3162 3162 3162 3162 3162 3162 3162 3162 3162 3161 3161 3161 3161 3161 3161 3161 3160 3160 3160 3161 3161 3161 3160 3159 3158 3157 3157 3157 3157 3157 3157 3157 3157 3156 3156 3156 3156 3156 3155 3155 3155 3155 3155 3154 3154 3154 3153 3153 3153 3153 3153 3152 3152 3152 3152 3152 3152
3162 3162 3162 3162 3162 3162 3161 3161 3161 3161 3161 3162 3162 3162 3163 3163 3163 3163 3163 3163 3163 3162 3162 3162 3162 3162 3162 3163 3163 3163 3163 3163 3163 3162 3162 3161 3161 3161 3161 3160 3160 3160 3160 3160 3160 3160 3160 3160 3160 3160 3160 3160 3160 3160 3160 3159 3159 3159 3159 3159 3158 3158 3158 3158 3157 3158 3158 3158 3158 3157 3156 3156 3155 3155 3155 3155 3155 3155 3155 3155 3154 3154 3154 3154 3153 3153 3153 3153 3152 3152 3152 3152 3151 3151 3151 3151 3151 3150 3150 3150 3150 3150 3150
3160 3160 3161 3161 3161 3161 3160 3160 3160 3159 3160 3160 3160 3161 3161 3161 3161 3161 3161 3161 3161 3161 3161 3160 3160 3161 3161 3161 3161 3161 3161 3161 3161 3160 3160 3159 3159 3159 3158 3158 3158 3157 3157 3157 3157 3157 3157 3157 3158 3158 3158 3158 3158 3157 3157 3157 3157 3157 3157 3157 3156 3156 3156 3155 3155 3155 3155 3155 3156 3155 3155 3154 3153 3153 3153 3153 3153 3153 3153 3152 3152 3152 3152 3151 3151 3151 3151 3151 3151 3150 3150 3150 3150 3149 3149 3149 3148 3148 3148 3148 3148 3147 3147
3157 3158 3158 3158 3159 3159 3159 3158 3158 3157 3157 3158 3158 3158 3159 3159 3159 3159 3159 3159 3159 3159 3159 3158 3158 3158 3158 3158 3158 3159 3159 3159 3158 3158 3158 3158 3158 3157 3156 3156 3155 3155 3155 3155 3155 3155 3155 3155 3155 3156 3156 3156 3155 3155 3155 3155 3155 3155 3155 3155 3154 3154 3153 3153 3152 3152 3152 3152 3153 3153 3152 3152 3151 3151 3151 3151 3151 3151 3151 3150 3150 3150 3150 3150 3149 3149 3149 3148 3148 3148 3148 3148 3147 3147 3147 3146 3146 3146 3146 3146 3146 3145 3145
3155 3155 3155 3156 3156 3156 3156 3156 3156 3156 3156 3156 3156 3156 3156 3156 3157 3157 3157 3157 3157 3157 3156 3156 3156 3156 3156 3156 3156 3156 3156 3156 3156 3156 3156 3156 3155 3155 3154 3153 3152 3152 3152 3152 3152 3151 3152 3152 3152 3153 3154 3153 3153 3153 3152 3152 3152 3152 3152 3152 3152 3152 3151 3151 3150 3149 3149 3150 3150 3150 3150 3150 3149 3148 3148 3148 3148 3148 3148 3148 3148 3148 3147 3147 3147 3147 3147 3146 3146 3146 3146 3146 3145 3145 3145 3144 3144 3144 3144 3143 3143 3143 3143
3152 3152 3152 3153 3153 3153 3153 3154 3153 3153 3153 3153 3153 3153 3154 3154 3154 3154 3155 3155 3155 3154 3154 3154 3154 3153 3153 3153 3153 3153 3154 3154 3154 3154 3154 3153 3153 3152 3151 3151 3150 3150 3150 3150 3148 3148 3149 3150 3150 3151 3151 3151 3151 3150 3150 3150 3150 3150 3150 3150 3150 3150 3149 3148 3148 3147 3147 3147 3147 3147 3147 3147 3146 3146 3146 3146 3146 3146 3146 3146 3146 3145 3145 3145 3145 3145 3145 3144 3144 3144 3144 3143 3143 3143 3142 3142 3142 3141 3141 3141 3141 3141 3141
3150 3150 3150 3150 3150 3150 3150 3150 3151 3151 3151 3151 3151 3151 3151 3151 3151 3152 3152 3152 3152 3152 3152 3151 3151 3151 3151 3151 3151 3151 3151 3151 3151 3151 3151 3151 3150 3150 3149 3149 3148 3148 3146 3146 3145 3145 3146 3148 3149 3148 3148 3149 3148 3147 3147 3147 3147 3147 3147 3147 3147 3147 3146 3146 3146 3145 3145 3145 3145 3145 3144 3144 3144 3143 3143 3143 3143 3143 3143 3143 3143 3143 3143 3143 3143 3142 3142 3142 3142 3141 3141 3141 3141 3141 3140 3140 3140 3139 3139 3139 3139 3139 3138
3147 3147 3147 3147 3147 3147 3147 3147 3147 3148 3148 3148 3148 3148 3148 3148 3149 3149 3149 3149 3150 3149 3149 3149 3148 3148 3148 3148 3148 3148 3148 3147 3147 3148 3148 3148 3148 3148 3147 3146 3146 3145 3143 3143 3142 3142 3143 3145 3145 3145 3145 3146 3145 3144 3145 3145 3145 3145 3144 3145 3144 3144 3144 3144 3143 3143 3143 3143 3142 3142 3142 3141 3141 3141 3141 3141 3141 3141 3141 3141 3141 3140 3140 3140 3140 3140 3140 3140 3139 3139 3139 3139 3139 3138 3138 3137 3137 3137 3137 3136 3136 3136 3136
3145 3145 3145 3145 3144 3144 3144 3144 3144 3144 3144 3145 3145 3145 3145 3146 3146 3146 3146 3147 3147 3147 3146 3146 3146 3146 3146 3146 3146 3145 3145 3144 3144 3144 3145 3145 3145 3145 3145 3144 3143 3142 3141 3141 3140 3141 3141 3141 3141 3141 3141 3143 3142 3141 3142 3142 3142 3142 3142 3142 3142 3141 3141 3141 3141 3141 3141 3141 3140 3140 3139 3139 3138 3138 3138 3138 3138 3138 3138 3138 3138 3138 3138 3138 3137 3137 3137 3137 3137 3137 3137 3136 3136 3136 3135 3135 3135 3134 3134 3134 3134 3134 3133
3142 3142 3142 3142 3142 3141 3141 3141 3141 3141 3141 3141 3141 3142 3142 3143 3143 3143 3144 3144 3144 3144 3144 3143 3143 3142 3143 3143 3143 3143 3142 3142 3141 3141 3142 3141 3142 3142 3142 3142 3141 3141 3140 3139 3138 3137 3136 3136 3137 3137 3138 3139 3140 3139 3139 3139 3140 3140 3139 3139 3139 3139 3139 3138 3138 3138 3138 3138 3138 3137 3137 3137 3136 3136 3135 3135 3135 3135 3136 3136 3136 3136 3136 3136 3135 3135 3135 3135 3135 3135 3135 3134 3134 3133 3133 3132 3132 3132 3131 3131 3131 3131 3131
3140 3140 3140 3140 3140 3139 3139 3139 3139 3139 3139 3139 3138 3139 3139 3140 3140 3141 3141 3141 3141 3142 3141 3141 3140 3140 3140 3140 3140 3140 3139 3139 3139 3139 3139 3139 3138 3139 3139 3139 3139 3139 3138 3137 3136 3134 3132 3132 3133 3134 3134 3135 3136 3136 3137 3136 3136 3137 3137 3136 3136 3136 3136 3136 3136 3136 3136 3136 3135 3135 3135 3134 3134 3133 3133 3132 3132 3132 3132 3133 3133 3133 3133 3133 3133 3133 3133 3133 3133 3132 3132 3132 3131 3131 3130 3130 3130 3129 3129 3129 3129 3128 3128
3138 3138 3138 3138 3137 3137 3137 3136 3136 3136 3136 3136 3136 3136 3136 3136 3137 3138 3138 3139 3139 3139 3139 3138 3138 3137 3137 3137 3136 3136 3136 3136 3137 3137 3136 3136 3135 3136 3137 3137 3136 3136 3136 3135 3134 3132 3131 3130 3130 3131 3131 3131 3131 3132 3134 3133 3133 3134 3134 3134 3133 3133 3132 3132 3132 3133 3133 3133 3133 3132 3132 3132 3132 3131 3131 3130 3130 3130 3130 3130 3130 3130 3130 3130 3131 3131 3131 3131 3131 3131 3130 3130 3129 3128 3128 3127 3127 3126 3126 3126 3126 3126 3126
3136 3136 3136 3136 3136 3136 3135 3135 3134 3134 3134 3134 3134 3134 3134 3134 3134 3135 3136 3136 3137 3137 3136 3136 3136 3135 3135 3134 3133 3133 3133 3133 3134 3134 3134 3133 3132 3133 3134 3134 3133 3133 3133 3133 3132 3131 3129 3128 3128 3128 3128 3128 3128 3128 3129 3130 3131 3131 3130 3131 3131 3130 3130 3130 3130 3130 3130 3130 3130 3130 3130 3130 3129 3129 3129 3128 3128 3127 3127 3127 3127 3127 3127 3127 3127 3127 3128 3128 3128 3128 3128 3128 3127 3126 3126 3125 3125 3124 3123 3123 3123 3123 3123
3133 3133 3134 3134 3134 3134 3133 3133 3132 3132 3132 3132 3132 3131 3131 3131 3132 3133 3134 3134 3135 3135 3134 3134 3134 3133 3132 3131 3131 3130 3130 3130 3130 3130 3130 3131 3130 3131 3131 3131 3130 3130 3130 3130 3129 3129 3128 3126 3126 3125 3125 3125 3125 3125 3125 3126 3127 3127 3127 3127 3127 3127 3126 3127 3127 3127 3127 3127 3127 3127 3127 3127 3127 3127 3127 3126 3126 3126 3125 3124 3124 3124 3124 3124 3124 3124 3125 3125 3126 3126 3126 3125 3125 3124 3123 3123 3122 3121 3121 3120 3120 3120 3120